This is the latest recevied weather packets stored in our database for station/object N6SPP. If no packets are shown the sender has not sent any weather packets the latest 10 day(s).
| Time | Temp. | Humidity | Pressure | Rain* | Wind** | Luminosity | Snow |
|---|---|---|---|---|---|---|---|
| 1777863757 | 14.44° C | 71% | 1015.3 hPa | 0 mm | - | 2 W/m² | - |
| 1777863453 | 14.44° C | 70% | 1015 hPa | 0 mm | - | 4 W/m² | - |
| 1777863150 | 14.44° C | 70% | 1014.8 hPa | 0 mm | - | 6 W/m² | - |
| 1777862847 | 14.44° C | 69% | 1014.7 hPa | 0 mm | - | 9 W/m² | - |
| 1777862543 | 15° C | 69% | 1014.6 hPa | 0 mm | - | 12 W/m² | - |
| 1777862240 | 15° C | 68% | 1014.5 hPa | 0 mm | - | 17 W/m² | - |
| 1777861936 | 15° C | 66% | 1014.7 hPa | 0 mm | - | 22 W/m² | - |
| 1777861632 | 15.56° C | 65% | 1014.5 hPa | 0 mm | - | 27 W/m² | - |
| 1777861329 | 15.56° C | 64% | 1014.4 hPa | 0 mm | - | 32 W/m² | - |
| 1777861027 | 15.56° C | 64% | 1014.2 hPa | 0 mm | - | 38 W/m² | - |
| 1777860723 | 15.56° C | 64% | 1014.2 hPa | 0 mm | - | 38 W/m² | - |
| 1777860420 | 15.56° C | 63% | 1014.2 hPa | 0 mm | - | 46 W/m² | - |
| 1777860116 | 15.56° C | 62% | 1014.1 hPa | 0 mm | - | 51 W/m² | - |
| 1777859813 | 15.56° C | 63% | 1014.3 hPa | 0 mm | - | 61 W/m² | - |
| 1777859509 | 16.11° C | 61% | 1014.4 hPa | 0 mm | - | 52 W/m² | - |
| 1777859205 | 16.67° C | 61% | 1014.3 hPa | 0 mm | - | 50 W/m² | - |
| 1777858902 | 16.67° C | 61% | 1014.5 hPa | 0 mm | - | 107 W/m² | - |
| 1777858600 | 17.22° C | 61% | 1014.2 hPa | 0 mm | - | 122 W/m² | - |
| 1777858296 | 16.67° C | 61% | 1014.2 hPa | 0 mm | - | 151 W/m² | - |
| 1777857994 | 16.67° C | 61% | 1014.4 hPa | 0 mm | - | 116 W/m² | - |
| 1777857692 | 16.67° C | 61% | 1014.4 hPa | 0 mm | - | 163 W/m² | - |
| 1777857388 | 17.22° C | 61% | 1014.4 hPa | 0 mm | - | 174 W/m² | - |
| 1777857085 | 16.67° C | 62% | 1014.5 hPa | 0 mm | - | 175 W/m² | - |
| 1777856781 | 16.67° C | 63% | 1014.5 hPa | 0 mm | - | 182 W/m² | - |
| 1777856476 | 16.67° C | 63% | 1014.5 hPa | 0 mm | - | 213 W/m² | - |
* Rain latest hour (hover to see other rain measurements)
** Current wind speed in m/s (hover to see current wind gust speed)